HK6LRQ-26 Weather Reports


time (UTC)temp
C
wind
direction
speed
KPH
gust
KPH
rain 1hr
cm
rain 24hr
cm
rain mn
cm
humidity
%
barometer
mb
20260507143617 18 0 1.6 0.0 0.00 0.00 0.00 81 1016.0
20260507140616 17 0 1.6 0.0 0.00 0.00 0.00 79 1016.0
20260507133615 17 0 1.6 0.0 0.00 0.00 0.00 77 1016.0
20260507130614 17 298 0.0 3.2 0.00 0.00 0.00 75 1016.0
20260507123614 14 91 6.4 6.4 0.00 0.00 0.00 80 1016.0
20260507120612 14 91 6.4 6.4 0.00 0.00 0.00 80 1016.0
20260507113611 14 91 6.4 6.4 0.00 0.00 0.00 80 1016.0
20260507110610 14 91 6.4 6.4 0.00 0.00 0.00 80 1016.0
20260507103609 14 91 6.4 6.4 0.00 0.00 0.00 80 1016.0
20260507100608 14 91 6.4 6.4 0.00 0.00 0.00 80 1016.0
20260507093607 14 91 6.4 6.4 0.00 0.00 0.00 80 1016.0
20260507090606 15 91 6.4 6.4 0.00 0.00 0.00 80 1016.0
20260507083605 15 91 6.4 6.4 0.00 0.00 0.00 80 1016.0
20260507080604 15 91 6.4 6.4 0.00 0.00 0.00 80 1016.0
20260507073603 15 91 6.4 6.4 0.00 0.00 0.00 80 1016.0
20260507070602 15 91 6.4 6.4 0.00 0.00 0.00 80 1016.0
20260507063601 15 91 6.4 6.4 0.00 0.00 0.00 80 1016.0
20260507060600 15 91 6.4 6.4 0.00 0.00 0.00 80 1016.0
20260507053559 15 91 6.4 6.4 0.00 0.00 0.00 80 1017.0
20260507050558 15 91 6.4 6.4 0.00 0.00 0.00 80 1017.0
20260507043558 15 91 6.4 6.4 0.00 0.00 0.00 80 1017.0
20260507040556 15 91 6.4 6.4 0.00 0.00 0.00 80 1017.0
20260507033555 15 91 6.4 6.4 0.00 0.00 0.00 80 1017.0
20260507030553 16 91 6.4 6.4 0.00 0.00 0.00 80 1016.0
20260507023552 16 91 6.4 6.4 0.00 0.00 0.00 80 1016.0
20260507020551 16 91 6.4 6.4 0.00 0.00 0.00 80 1015.0
20260507013550 16 91 6.4 6.4 0.00 0.00 0.00 80 1015.0
20260507010549 17 91 6.4 6.4 0.00 0.00 0.00 80 1014.0
20260507003548 17 91 6.4 6.4 0.00 0.00 0.00 80 1014.0
20260507000547 17 91 6.4 6.4 0.00 0.00 0.00 80 1013.0
20260506233546 21 210 12.9 0.0 0.00 0.00 0.00 80 1013.0
20260506230545 21 210 12.9 0.0 0.00 0.00 0.00 80 1011.0
20260506223544 21 210 12.9 0.0 0.00 0.00 0.00 80 1011.0
20260506220543 22 210 12.9 0.0 0.00 0.00 0.00 80 1010.0
20260506213542 22 210 12.9 0.0 0.00 0.00 0.00 80 1010.0
20260506210541 22 210 12.9 0.0 0.00 0.00 0.00 80 1010.0
20260506203540 22 210 12.9 0.0 0.00 0.00 0.00 80 1010.0
20260506200538 22 210 12.9 0.0 0.00 0.00 0.00 81 1010.0
20260506193537 22 210 12.9 0.0 0.00 0.00 0.00 83 1010.0
20260506190536 22 210 12.9 0.0 0.00 0.00 0.00 83 1011.0
20260506183536 22 210 12.9 0.0 0.00 0.00 0.00 83 1011.0
20260506180535 22 210 12.9 0.0 0.00 0.00 0.00 83 1012.0
20260506173534 22 210 12.9 0.0 0.00 0.00 0.00 83 1012.0
20260506170533 22 200 6.4 0.0 0.00 0.00 0.00 83 1013.0
20260506163532 22 200 6.4 0.0 0.00 0.00 0.00 83 1013.0
20260506160531 21 0 3.2 0.0 0.00 0.00 0.00 88 1014.0
20260506153530 20 0 1.6 0.0 0.00 0.00 0.00 94 1015.0
20260506150529 20 0 1.6 0.0 0.00 0.00 0.00 94 1016.0